Change the Weather History Date:

Tuesday, June 11, 2013

  Actual Average Record
Temperature  
Mean Temperature 88 °F -  
Max Temperature 104 °F 97 °F 109 °F (1956)
Min Temperature 71 °F 64 °F 54 °F (1976)
Cooling Degree Days 22    
Growing Degree Days 38 (Base 50)    
Moisture  
Dew Point 24 °F    
Average Humidity 10    
Maximum Humidity 20    
Minimum Humidity 4    
Precipitation  
Precipitation 0.00 in - - ()
Sea Level Pressure  
Sea Level Pressure 29.78 in    
Wind  
Wind Speed 8 mph (NW)    
Max Wind Speed 20 mph    
Max Gust Speed 24 mph    
Visibility 10 miles    
Events      
Averages and records for this station are not official NWS values.
T = Trace of Precipitation, MM = Missing Value Source: NWS Daily Summary

Daily Weather History Graph

Daily Weather History Graph

Search for Another Location

Airport or City:

Trip Planner

Search our weather history database for the weather conditions in past years. The results will help you decide how hot, cold, wet, or windy it might be!

Date:

Astronomy

Jun. 11, 2013 Rise Set
Actual Time 5:16 AM MST 7:30 PM MST
Civil Twilight 4:48 AM MST 7:58 PM MST
Nautical Twilight 4:13 AM MST 8:33 PM MST
Astronomical Twilight 3:36 AM MST 9:10 PM MST
Moon 7:55 AM MST (6/11) 9:43 PM MST (6/11)
Length of Visible Light 15h 10m
Length of Day
14h 13m
Waxing Crescent, 9% of the Moon is Illuminated
Jun 11
Waxing Crescent
Jun 16
First Quarter
Jun 23
Full
Jun 29
Last Quarter
Jul 8
New

Hourly Weather History & Observations

Time (MST) Temp. Dew Point Humidity Pressure Visibility Wind Dir Wind Speed Gust Speed Precip Events Conditions
12:58 AM 82.2 °F 32.4 °F 17% 29.76 in 10.0 mi West 6.9 mph - N/A   Clear
1:58 AM 78.8 °F 29.5 °F 16% 29.75 in 10.0 mi WSW 8.1 mph - N/A   Clear
2:58 AM 75.6 °F 29.7 °F 18% 29.76 in 10.0 mi South 5.8 mph - N/A   Clear
3:58 AM 73.6 °F 29.3 °F 19% 29.77 in 10.0 mi SSE 6.9 mph - N/A   Clear
4:58 AM 72.0 °F 28.0 °F 20% 29.80 in 10.0 mi SE 5.8 mph - N/A   Clear
5:58 AM 71.2 °F 28.6 °F 20% 29.82 in 10.0 mi SE 5.8 mph - N/A   Clear
6:58 AM 77.9 °F 28.8 °F 16% 29.83 in 10.0 mi SSE 3.5 mph - N/A   Clear
7:58 AM 85.3 °F 29.3 °F 13% 29.82 in 10.0 mi Calm Calm - N/A   Clear
8:58 AM 89.6 °F 24.1 °F 9% 29.82 in 10.0 mi North 1.2 mph - N/A   Clear
9:58 AM 93.6 °F 21.2 °F 7% 29.82 in 10.0 mi Variable 2.3 mph - N/A   Clear
10:58 AM 95.9 °F 19.4 °F 6% 29.82 in 10.0 mi Variable 5.8 mph - N/A   Clear
11:58 AM 99.5 °F 12.7 °F 4% 29.80 in 10.0 mi West 10.4 mph - N/A   Clear
12:58 PM 101.8 °F 15.3 °F 4% 29.79 in 10.0 mi NNW 12.7 mph 16.1 mph N/A   Scattered Clouds
1:58 PM 103.1 °F 15.3 °F 4% 29.77 in 10.0 mi NW 15.0 mph 20.7 mph N/A   Clear
2:58 PM 104.0 °F 15.8 °F 4% 29.75 in 10.0 mi NW 16.1 mph 21.9 mph N/A   Clear
3:58 PM 104.7 °F 16.3 °F 4% 29.73 in 10.0 mi NNW 19.6 mph 24.2 mph N/A   Clear
4:58 PM 103.5 °F 20.7 °F 5% 29.73 in 10.0 mi NNW 16.1 mph - N/A   Clear
5:58 PM 101.8 °F 19.6 °F 5% 29.72 in 10.0 mi NNW 18.4 mph - N/A   Clear
6:58 PM 99.9 °F 22.3 °F 6% 29.73 in 10.0 mi NNW 16.1 mph - N/A   Clear
7:58 PM 95.7 °F 26.1 °F 8% 29.74 in 10.0 mi NNW 12.7 mph - N/A   Clear
8:58 PM 93.2 °F 27.0 °F 9% 29.76 in 10.0 mi NNW 12.7 mph - N/A   Clear
9:58 PM 92.3 °F 26.2 °F 9% 29.78 in 10.0 mi NW 12.7 mph - N/A   Clear
10:58 PM 91.0 °F 25.3 °F 9% 29.77 in 10.0 mi NW 11.5 mph - N/A   Clear
11:58 PM 89.4 °F 28.9 °F 11% 29.77 in 10.0 mi NW 9.2 mph - N/A   Clear